Location: Casone le Fosse
(44.6547°N, 12.1103°E)
Time: 04:37:13
(UTC+00:00)

ATLAS 2AS CENTAUR R/B - Pass Details

Date: 29 October 2020
Orbit: 939 x 1273 km, 63.7° (Epoch: 23 November)

Event Time Altitude Azimuth Distance (km) Brightness Sun altitude
Rises 16:23:11 0° 315° (NW) 4,203 6.2 -4.1°
Reaches altitude 10° 16:26:52 10° 330° (NNW) 3,198 5.4 -4.7°
Maximum altitude 16:32:36 22° 19° (NNE) 2,341 4.2 -5.7°
Drops below altitude 10° 16:38:03 10° 68° (ENE) 3,026 4.4 -6.6°
Enters shadow 16:38:50 - 72° (ENE) 3,217 4.5 -6.8°
